Plymouth, NH

3:03 AM EDT on April 25, 2018 (GMT -0400)
Plymouth

Weather History for K1P1 - February, 2012

Change the Weather History Date:

Sunday, February 12, 2012

  Actual Average (KLCI) Record (KLCI)
Temperature  
Mean Temperature 10 °F -  
Max Temperature 13 °F 33 °F 51 °F (1999)
Min Temperature 6 °F 8 °F -9 °F (1994)
Degree Days  
Heating Degree Days 56    
Moisture  
Dew Point -3 °F    
Average Humidity 57    
Maximum Humidity 69    
Minimum Humidity 46    
Precipitation  
Precipitation 0.00 in - - ()
Sea Level Pressure  
Sea Level Pressure 29.69 in    
Wind  
Wind Speed 12 mph (WNW)    
Max Wind Speed 21 mph    
Max Gust Speed 32 mph    
Visibility 10 miles    
Events      
Averages and records for this station are not official NWS values.
T = Trace of Precipitation, MM = Missing Value Source: NWS Daily Summary

Daily Weather History Graph

Daily Weather History Graph

Search for Another Location

Airport or City:

Astronomy

Feb. 12, 2012 Rise Set
Actual Time 6:50 AM EST 5:12 PM EST
Civil Twilight 6:21 AM EST 5:42 PM EST
Nautical Twilight 5:47 AM EST 6:15 PM EST
Astronomical Twilight 5:13 AM EST 6:49 PM EST
Moon 11:21 PM EST (2/12) 8:54 AM EST (2/12)
Length of Visible Light 11h 21m
Length of Day
10h 21m
Waning Gibbous, 72% of the Moon is Illuminated
Feb 12
Waning Gibbous
Feb 14
Last Quarter
Feb 21
New
Feb 29
First Quarter
Mar 8
Full

Hourly Weather History & Observations

Time (EST) Temp. Windchill Dew Point Humidity Pressure Visibility Wind Dir Wind Speed Gust Speed Precip Events Conditions
12:15 AM 13.8 °F 0.2 °F 5.4 °F 69% 29.63 in 10.0 mi WNW 11.5 mph 23.0 mph N/A   Clear
12:35 AM 13.5 °F -0.2 °F 4.1 °F 66% 29.64 in 10.0 mi WNW 11.5 mph 19.6 mph N/A   Clear
1:15 AM 12.4 °F -2.3 °F -0.4 °F 57% 29.64 in 10.0 mi WNW 12.7 mph 21.9 mph N/A   Clear
1:35 AM 11.7 °F -4.4 °F -2.0 °F 54% 29.64 in 10.0 mi WNW 15.0 mph 21.9 mph N/A   Clear
1:55 AM 11.3 °F -3.6 °F -2.7 °F 53% 29.66 in 10.0 mi West 12.7 mph 19.6 mph N/A   Clear
2:15 AM 10.8 °F -4.3 °F -2.6 °F 55% 29.67 in 10.0 mi WNW 12.7 mph 18.4 mph N/A   Clear
2:35 AM 10.0 °F -2.9 °F -2.0 °F 58% 29.67 in 10.0 mi WNW 9.2 mph - N/A   Clear
2:55 AM 9.5 °F -2.6 °F -1.7 °F 61% 29.67 in 10.0 mi West 8.1 mph - N/A   Clear
3:15 AM 9.5 °F -4.4 °F -1.8 °F 60% 29.67 in 10.0 mi West 10.4 mph 17.3 mph N/A   Clear
3:35 AM 9.1 °F -0.7 °F -1.1 °F 63% 29.66 in 10.0 mi West 5.8 mph - N/A   Clear
3:55 AM 9.1 °F -1.9 °F -0.9 °F 64% 29.66 in 10.0 mi WNW 6.9 mph - N/A   Clear
4:15 AM 9.0 °F - -0.9 °F 64% 29.66 in 10.0 mi Calm Calm - N/A   Clear
4:35 AM 9.0 °F - -0.9 °F 64% 29.66 in 10.0 mi Calm Calm - N/A   Clear
4:55 AM 8.6 °F 0.1 °F -0.2 °F 67% 29.66 in 10.0 mi WNW 4.6 mph - N/A   Clear
5:15 AM 8.4 °F -5.7 °F -0.2 °F 68% 29.66 in 10.0 mi West 10.4 mph 17.3 mph N/A   Clear
5:35 AM 8.2 °F -7.5 °F -0.4 °F 68% 29.66 in 10.0 mi West 12.7 mph 19.6 mph N/A   Clear
5:55 AM 8.2 °F -6.8 °F -0.4 °F 68% 29.66 in 10.0 mi WNW 11.5 mph 18.4 mph N/A   Clear
6:15 AM 8.1 °F -7.0 °F -0.4 °F 68% 29.66 in 10.0 mi WNW 11.5 mph 20.7 mph N/A   Mostly Cloudy
6:35 AM 7.7 °F -6.6 °F -0.8 °F 68% 29.66 in 10.0 mi WNW 10.4 mph 18.4 mph N/A   Mostly Cloudy
6:55 AM 7.7 °F -5.8 °F -1.8 °F 65% 29.66 in 10.0 mi WNW 9.2 mph 17.3 mph N/A   Scattered Clouds
7:15 AM 7.7 °F -4.8 °F -2.2 °F 64% 29.66 in 10.0 mi WNW 8.1 mph 19.6 mph N/A   Scattered Clouds
7:35 AM 7.7 °F -5.8 °F -3.1 °F 61% 29.67 in 10.0 mi WNW 9.2 mph 20.7 mph N/A   Clear
7:55 AM 8.1 °F -6.2 °F -3.1 °F 60% 29.67 in 10.0 mi WNW 10.4 mph 16.1 mph N/A   Clear
8:15 AM 8.2 °F -6.8 °F -3.1 °F 60% 29.67 in 10.0 mi WNW 11.5 mph 19.6 mph N/A   Clear
8:35 AM 8.2 °F -10.5 °F -3.1 °F 60% 29.66 in 10.0 mi WNW 18.4 mph 27.6 mph N/A   Clear
8:55 AM 7.7 °F -8.2 °F -3.1 °F 61% 29.67 in 10.0 mi WNW 12.7 mph 24.2 mph N/A   Clear
9:15 AM 8.8 °F -7.5 °F -2.9 °F 59% 29.68 in 10.0 mi West 13.8 mph 25.3 mph N/A   Clear
9:35 AM 9.5 °F -5.2 °F -2.6 °F 58% 29.68 in 10.0 mi WNW 11.5 mph 23.0 mph N/A   Clear
9:55 AM 10.2 °F -6.9 °F -2.6 °F 56% 29.68 in 10.0 mi WNW 16.1 mph 23.0 mph N/A   Scattered Clouds
10:15 AM 10.4 °F -6.0 °F -2.0 °F 57% 29.68 in 10.0 mi WNW 15.0 mph 23.0 mph N/A   Mostly Cloudy
10:35 AM 11.1 °F -5.7 °F -1.7 °F 57% 29.69 in 10.0 mi West 16.1 mph 21.9 mph N/A   Overcast
10:55 AM 10.8 °F -7.2 °F -2.0 °F 56% 29.69 in 10.0 mi NW 18.4 mph 25.3 mph N/A   Overcast
11:15 AM 10.4 °F -6.0 °F -1.7 °F 58% 29.68 in 7.0 mi WNW 15.0 mph 25.3 mph N/A   Overcast
11:35 AM 10.2 °F -6.9 °F -1.1 °F 60% 29.67 in 7.0 mi NW 16.1 mph 24.2 mph N/A   Overcast
11:55 AM 10.9 °F -0.8 °F -1.5 °F 57% 29.67 in 10.0 mi NNW 8.1 mph 18.4 mph N/A   Overcast
12:15 PM 11.3 °F -2.9 °F -3.1 °F 52% 29.66 in 10.0 mi WNW 11.5 mph 25.3 mph N/A   Overcast
12:35 PM 11.1 °F -4.5 °F -2.7 °F 54% 29.66 in 7.0 mi WNW 13.8 mph 25.3 mph N/A   Overcast
12:55 PM 11.7 °F -4.4 °F -3.6 °F 50% 29.66 in 10.0 mi NW 15.0 mph 26.5 mph N/A   Overcast
1:15 PM 12.0 °F -5.6 °F -4.5 °F 48% 29.66 in 10.0 mi WNW 18.4 mph 26.5 mph N/A   Overcast
1:35 PM 11.8 °F -6.3 °F -4.9 °F 47% 29.66 in 10.0 mi West 19.6 mph 26.5 mph N/A   Overcast
1:55 PM 11.8 °F -5.3 °F -4.0 °F 49% 29.66 in 10.0 mi West 17.3 mph 26.5 mph N/A   Overcast
2:15 PM 12.0 °F -2.7 °F -4.5 °F 48% 29.66 in 10.0 mi WNW 12.7 mph 25.3 mph N/A   Overcast
2:35 PM 11.8 °F -5.8 °F -3.8 °F 50% 29.66 in 10.0 mi NW 18.4 mph 27.6 mph N/A   Overcast
2:55 PM 11.7 °F -4.4 °F -3.5 °F 51% 29.67 in 10.0 mi WNW 15.0 mph 24.2 mph N/A   Mostly Cloudy
3:15 PM 11.3 °F -2.2 °F -3.6 °F 51% 29.67 in 10.0 mi WNW 10.4 mph 21.9 mph N/A   Mostly Cloudy
3:35 PM 11.1 °F -7.7 °F -6.0 °F 46% 29.67 in 10.0 mi WNW 20.7 mph 32.2 mph N/A   Scattered Clouds
3:55 PM 10.4 °F -4.1 °F -6.0 °F 48% 29.68 in 10.0 mi WNW 11.5 mph 26.5 mph N/A   Scattered Clouds
4:15 PM 10.0 °F -8.1 °F -6.3 °F 48% 29.68 in 10.0 mi West 18.4 mph 28.8 mph N/A   Mostly Cloudy
4:35 PM 10.4 °F -7.2 °F -6.0 °F 48% 29.69 in 10.0 mi West 17.3 mph 26.5 mph N/A   Scattered Clouds
4:55 PM 10.2 °F -6.9 °F -6.2 °F 48% 29.69 in 10.0 mi WNW 16.1 mph 31.1 mph N/A   Clear
5:15 PM 10.0 °F -6.5 °F -5.4 °F 50% 29.70 in 10.0 mi WNW 15.0 mph 27.6 mph N/A   Clear
5:35 PM 9.9 °F -6.1 °F -4.5 °F 52% 29.72 in 10.0 mi WNW 13.8 mph 18.4 mph N/A   Scattered Clouds
5:55 PM 9.5 °F -5.9 °F -4.7 °F 53% 29.73 in 10.0 mi WNW 12.7 mph 19.6 mph N/A   Scattered Clouds
6:15 PM 9.3 °F -4.6 °F -5.3 °F 52% 29.74 in 10.0 mi WNW 10.4 mph 24.2 mph N/A   Clear
6:35 PM 9.1 °F -7.0 °F -4.7 °F 53% 29.75 in 10.0 mi NW 13.8 mph - N/A   Scattered Clouds
6:55 PM 8.8 °F -8.1 °F -5.3 °F 53% 29.76 in 10.0 mi WNW 15.0 mph 19.6 mph N/A   Scattered Clouds
7:15 PM 8.2 °F -6.0 °F -5.4 °F 54% 29.78 in 10.0 mi WNW 10.4 mph 16.1 mph N/A   Clear
7:35 PM 7.7 °F -6.6 °F -5.3 °F 56% 29.79 in 10.0 mi WNW 10.4 mph 16.1 mph N/A   Clear
7:55 PM 7.3 °F -5.2 °F -5.1 °F 57% 29.79 in 10.0 mi WNW 8.1 mph - N/A   Clear
8:15 PM 7.2 °F -5.4 °F -5.4 °F 56% 29.80 in 10.0 mi West 8.1 mph - N/A   Clear
8:35 PM 6.8 °F -4.8 °F -5.1 °F 58% 29.81 in 10.0 mi West 6.9 mph - N/A   Clear
8:55 PM 6.8 °F -3.5 °F -5.1 °F 58% 29.81 in 10.0 mi West 5.8 mph - N/A   Mostly Cloudy
9:15 PM 7.0 °F -3.3 °F -4.7 °F 59% 29.81 in 10.0 mi West 5.8 mph - N/A   Mostly Cloudy
9:35 PM 6.8 °F -3.5 °F -4.9 °F 59% 29.81 in 10.0 mi West 5.8 mph - N/A   Scattered Clouds
9:55 PM 7.3 °F -1.3 °F -4.2 °F 59% 29.81 in 10.0 mi West 4.6 mph - N/A   Scattered Clouds
10:15 PM 7.5 °F -3.9 °F -4.0 °F 59% 29.81 in 10.0 mi West 6.9 mph - N/A   Mostly Cloudy
10:35 PM 7.7 °F -3.7 °F -3.1 °F 61% 29.81 in 10.0 mi West 6.9 mph - N/A   Mostly Cloudy
10:55 PM 7.7 °F -2.4 °F -2.6 °F 63% 29.81 in 10.0 mi West 5.8 mph - N/A   Overcast
11:15 PM 8.4 °F -0.1 °F -1.7 °F 64% 29.81 in 10.0 mi West 4.6 mph - N/A   Mostly Cloudy
11:35 PM 8.2 °F -0.3 °F -0.9 °F 66% 29.81 in 10.0 mi West 4.6 mph - N/A   Overcast
11:55 PM 8.4 °F - -0.4 °F 67% 29.80 in 10.0 mi Calm Calm - N/A   Overcast